Regional Weather Roundup
Issued by NWS Memphis, TN

Home | Current Version | Previous Version | Text Only | Print | Product List | Glossary On
Versions: 1 2 3 4 5 6 7 8 9 10 11 12 13 14 15 16 17 18 19 20 21 22 23 24 25 26 27 28 29 30 31 32 33 34 35 36 37 38 39 40 41 42 43 44 45 46 47 48 49 50
000
ASUS44 KMEG 241310
RWRMEG
MEMPHIS CWA HOURLY WEATHER ROUNDUP
NATIONAL WEATHER SERVICE MEMPHIS TN
800 AM CDT FRI OCT 24 2014

...WEST TENNESSEE...

CITY           SKY/WX    TMP DP  RH WIND       PRES   REMARKS
MEMPHIS INTL   PTCLDY    50  47  89 CALM      30.16R
NWS MEMPHIS      N/A     44 N/A N/A MISG        N/A
JACKSON        CLEAR     41  40  96 CALM      30.15S
LEXINGTON      CLEAR     41  39  93 CALM      30.13S
SAVANNAH       CLOUDY    43  43 100 CALM      30.15R VSB 0
DYERSBURG      CLEAR     45  34  65 CALM      30.17R
UNION CITY     CLOUDY    43  43 100 SE3       30.13F
PARIS          CLEAR     41  39  93 CALM      30.14S
HUNTINGDON     CLEAR     41  40  96 CALM      30.15R


...EASTERN ARKANSAS...

CITY           SKY/WX    TMP DP  RH WIND       PRES   REMARKS
JONESBORO      MOCLDY    47  46  97 CALM      30.15S
WEST MEMPHIS   CLEAR     45  45 100 CALM      30.15S
BATESVILLE     CLEAR     45  43  93 CALM      30.15S
NEWPORT        MOCLDY    45  45 100 CALM      30.17R
WALNUT RIDGE   CLEAR     46  43  87 CALM      30.14R
BLYTHEVILLE    CLEAR     46  45  96 CALM      30.16R
NW BLYTHEVILLE CLEAR     48  45  87 CALM      30.15
SEARCY         CLEAR     45  45 100 CALM      30.17S FOG
STUTTGART      CLEAR     48  46  93 CALM      30.17R
PINE BLUFF     CLEAR     45  44  97 CALM      30.17R
MONTICELLO     CLEAR     46  44  93 CALM      30.16R


...NORTH MISSISSIPPI...

CITY           SKY/WX    TMP DP  RH WIND       PRES   REMARKS
TUPELO         CLEAR     49  45  86 N3        30.13R
OXFORD         CLEAR     41  41 100 CALM      30.17R
OLIVE BRANCH   PTCLDY    43  43 100 CALM      30.16R
TUNICA         FOG       43  41  93 CALM      30.17R VSB<1/4
CLARKSDALE     CLEAR     45  45 100 CALM      30.17R
CORINTH        CLEAR     45  45 100 CALM      30.15R FOG
GRENADA          N/A    N/A N/A N/A MISG        N/A
GREENWOOD      MOCLDY    45  44  97 CALM      30.15S FOG
COLUMBUS       CLEAR     49  48  97 NW3       30.13R
STARKVILLE     FAIR      48  46  93 CALM      30.14R
GOLDEN TRIANGL CLEAR     46  43  87 NW5       30.13R


...SOUTHEAST MISSOURI...

CITY           SKY/WX    TMP DP  RH WIND       PRES   REMARKS
WEST PLAINS    CLOUDY    49  46  90 CALM      30.15R
POPLAR BLUFF   PTCLDY    49  46  90 CALM      30.13S
CAPE GIRARDEAU CLOUDY    52  49  89 CALM      30.13S


...NORTHWEST ALABAMA...

CITY           SKY/WX    TMP DP  RH WIND       PRES   REMARKS
MUSCLE SHOALS  SUNNY     47  43  86 CALM      30.14R


...MIDDLE TENNESSEE...

CITY           SKY/WX    TMP DP  RH WIND       PRES   REMARKS
NASHVILLE      MOSUNNY   48  45  89 W5        30.15R
CLARKSVILLE    PTCLDY    44  42  93 CALM      30.14S
COLUMBIA         N/A    N/A N/A N/A CALM      30.14R


...WESTERN KENTUCKY...

CITY           SKY/WX    TMP DP  RH WIND       PRES   REMARKS
PADUCAH        CLOUDY    46  44  93 CALM      30.13S FOG
FORT CAMPBELL  CLEAR     46  45  99 CALM      30.14S


...CENTRAL ARKANSAS...

CITY           SKY/WX    TMP DP  RH WIND       PRES   REMARKS
LITTLE ROCK    PTCLDY    49  45  86 CALM      30.17R


SKY/WX REPORTED AS FAIR MEANS FEW OR NO CLOUDS BELOW
12 THOUSAND FEET.




USA.gov is the U.S. government's official web portal to all federal, state and local government web resources and services.